Terminal Aerodrome Forecast
Issued by NWS

Home | Current Version | Previous Version | Text Only | Print | Product List | Glossary On
Versions: 1 2 3 4 5 6 7 8 9 10 11 12 13 14
000
FTUS45 KABQ 061733
TAFGUP
TAF
KGUP 061733Z 0618/0718 22022G30KT P6SM BKN120
     FM070100 23014G22KT P6SM SCT200
     FM071100 24008KT P6SM SCT200=

USA.gov is the U.S. government's official web portal to all federal, state and local government web resources and services.